| time (UTC) | temp C | wind direction | speed KPH | gust KPH | rain 1hr cm | rain 24hr cm | rain mn cm | humidity % | barometer mb |
| 20260905221537 | 14 | 122 | 12.9 | 29.0 | 0.00 | 0.46 | 0.00 | 81 | 1019.8 |
| 20260905220035 | 14 | 296 | 11.3 | 24.1 | 0.00 | 0.46 | 0.00 | 81 | 1019.8 |
| 20260905214544 | 14 | 306 | 11.3 | 27.4 | 0.00 | 0.46 | 0.43 | 80 | 1019.7 |
| 20260905213034 | 14 | 326 | 11.3 | 29.0 | 0.00 | 0.46 | 0.43 | 80 | 1019.6 |
| 20260905211535 | 14 | 351 | 9.7 | 24.1 | 0.00 | 0.46 | 0.43 | 83 | 1019.4 |
| 20260905210045 | 13 | 340 | 14.5 | 27.4 | 0.00 | 0.46 | 0.43 | 84 | 1019.2 |
| 20260905204534 | 13 | 291 | 11.3 | 35.4 | 0.00 | 0.64 | 0.43 | 85 | 1019.2 |
| 20260905203037 | 14 | 304 | 9.7 | 29.0 | 0.00 | 0.64 | 0.43 | 81 | 1018.9 |
| 20260905201537 | 14 | 332 | 11.3 | 30.6 | 0.00 | 0.64 | 0.43 | 82 | 1018.8 |
| 20260905200101 | 13 | 275 | 11.3 | 29.0 | 0.00 | 0.64 | 0.43 | 84 | 1018.7 |
| 20260905194534 | 13 | 310 | 8.0 | 20.9 | 0.00 | 0.74 | 0.43 | 87 | 1018.3 |
| 20260905193038 | 14 | 266 | 11.3 | 25.7 | 0.00 | 0.74 | 0.43 | 85 | 1018.2 |
| 20260905191535 | 15 | 282 | 12.9 | 27.4 | 0.00 | 0.74 | 0.43 | 81 | 1018.0 |
| 20260905190034 | 15 | 298 | 11.3 | 29.0 | 0.00 | 0.74 | 0.43 | 82 | 1017.7 |
| 20260905184545 | 15 | 268 | 12.9 | 25.7 | 0.00 | 0.74 | 0.43 | 83 | 1017.6 |
| 20260905183041 | 15 | 309 | 11.3 | 27.4 | 0.00 | 0.74 | 0.43 | 83 | 1017.3 |
| 20260905181545 | 15 | 342 | 9.7 | 29.0 | 0.00 | 0.74 | 0.43 | 80 | 1017.1 |
| 20260905180040 | 15 | 274 | 11.3 | 27.4 | 0.00 | 0.74 | 0.43 | 80 | 1017.0 |
| 20260905174535 | 15 | 294 | 14.5 | 29.0 | 0.00 | 0.74 | 0.43 | 77 | 1016.8 |
| 20260905173043 | 15 | 295 | 11.3 | 33.8 | 0.00 | 0.74 | 0.43 | 79 | 1016.5 |
| 20260905171538 | 15 | 288 | 12.9 | 30.6 | 0.00 | 0.74 | 0.43 | 77 | 1016.3 |
| 20260905170036 | 15 | 319 | 11.3 | 25.7 | 0.00 | 0.74 | 0.43 | 81 | 1016.1 |
| 20260905164537 | 15 | 294 | 16.1 | 32.2 | 0.00 | 0.74 | 0.43 | 77 | 1015.9 |
| 20260905163035 | 15 | 314 | 11.3 | 29.0 | 0.00 | 0.74 | 0.43 | 78 | 1015.7 |
| 20260905161537 | 15 | 309 | 12.9 | 35.4 | 0.00 | 0.74 | 0.43 | 80 | 1015.7 |
| 20260905160036 | 15 | 252 | 11.3 | 25.7 | 0.00 | 0.74 | 0.43 | 84 | 1015.5 |
| 20260905154536 | 15 | 267 | 9.7 | 29.0 | 0.00 | 0.84 | 0.43 | 83 | 1015.3 |
| 20260905153037 | 15 | 293 | 11.3 | 29.0 | 0.00 | 0.84 | 0.43 | 84 | 1015.1 |
| 20260905151537 | 14 | 326 | 12.9 | 30.6 | 0.00 | 0.84 | 0.41 | 86 | 1015.0 |
| 20260905150039 | 16 | 281 | 12.9 | 32.2 | 0.00 | 0.84 | 0.41 | 82 | 1014.7 |
| 20260905144543 | 16 | 288 | 17.7 | 32.2 | 0.00 | 0.89 | 0.41 | 80 | 1014.5 |
| 20260905143037 | 15 | 291 | 14.5 | 30.6 | 0.00 | 0.89 | 0.41 | 83 | 1014.3 |
| 20260905141536 | 15 | 272 | 11.3 | 29.0 | 0.00 | 0.89 | 0.41 | 82 | 1014.2 |
| 20260905140039 | 15 | 297 | 12.9 | 37.0 | 0.00 | 0.89 | 0.41 | 83 | 1013.9 |
| 20260905134539 | 17 | 311 | 19.3 | 41.8 | 0.00 | 0.94 | 0.38 | 76 | 1013.6 |
| 20260905133035 | 16 | 268 | 14.5 | 41.8 | 0.00 | 0.94 | 0.38 | 76 | 1013.4 |
| 20260905131540 | 16 | 302 | 12.9 | 38.6 | 0.00 | 0.94 | 0.38 | 77 | 1013.4 |
| 20260905130034 | 16 | 252 | 17.7 | 33.8 | 0.03 | 0.94 | 0.38 | 76 | 1013.0 |
| 20260905124536 | 16 | 253 | 9.7 | 29.0 | 0.03 | 0.97 | 0.38 | 79 | 1012.7 |
| 20260905123057 | 16 | 249 | 12.9 | 27.4 | 0.03 | 0.97 | 0.38 | 82 | 1012.6 |
| 20260905121535 | 16 | 291 | 12.9 | 37.0 | 0.03 | 0.97 | 0.38 | 82 | 1012.3 |
| 20260905120036 | 17 | 259 | 16.1 | 37.0 | 0.00 | 0.94 | 0.36 | 73 | 1012.0 |
| 20260905114537 | 16 | 300 | 16.1 | 29.0 | 0.00 | 0.97 | 0.36 | 77 | 1011.9 |
| 20260905113035 | 16 | 278 | 16.1 | 33.8 | 0.00 | 0.97 | 0.36 | 75 | 1011.7 |
| 20260905111536 | 17 | 162 | 12.9 | 33.8 | 0.00 | 0.97 | 0.36 | 78 | 1011.4 |
| 20260905110035 | 16 | 284 | 16.1 | 29.0 | 0.00 | 0.97 | 0.36 | 78 | 1011.1 |
| 20260905104535 | 16 | 273 | 11.3 | 24.1 | 0.00 | 1.50 | 0.36 | 79 | 1010.8 |
| 20260905103042 | 16 | 349 | 11.3 | 27.4 | 0.00 | 1.50 | 0.36 | 78 | 1010.6 |
| 20260905101533 | 16 | 290 | 11.3 | 35.4 | 0.00 | 1.50 | 0.36 | 82 | 1010.7 |
| 20260905100048 | 15 | 289 | 11.3 | 25.7 | 0.00 | 1.50 | 0.36 | 83 | 1010.5 |
| 20260905094536 | 15 | 238 | 9.7 | 19.3 | 0.08 | 1.78 | 0.36 | 87 | 1010.4 |
| 20260905093034 | 14 | 301 | 8.0 | 22.5 | 0.13 | 1.78 | 0.36 | 91 | 1010.3 |
| 20260905091542 | 13 | 213 | 3.2 | 12.9 | 0.20 | 1.78 | 0.36 | 93 | 1010.1 |
| 20260905090035 | 12 | 289 | 4.8 | 14.5 | 0.18 | 1.75 | 0.33 | 92 | 1009.8 |
| 20260905084534 | 13 | 281 | 6.4 | 22.5 | 0.18 | 1.68 | 0.28 | 92 | 1010.1 |
| 20260905083033 | 13 | 273 | 6.4 | 19.3 | 0.10 | 1.63 | 0.20 | 89 | 1009.9 |
| 20260905081533 | 13 | 305 | 4.8 | 20.9 | 0.05 | 1.55 | 0.13 | 87 | 1009.7 |
| 20260905074536 | 15 | 251 | 9.7 | 20.9 | 0.08 | 1.50 | 0.08 | 83 | 1008.8 |
| 20260905073036 | 14 | 311 | 8.0 | 24.1 | 0.08 | 1.50 | 0.08 | 85 | 1008.9 |
| 20260905071537 | 15 | 309 | 9.7 | 32.2 | 0.08 | 1.50 | 0.08 | 83 | 1008.8 |
| 20260905070048 | 16 | 302 | 14.5 | 27.4 | 0.00 | 1.42 | 0.00 | 78 | 1008.5 |
| 20260905064542 | 16 | 279 | 16.1 | 29.0 | 0.00 | 1.40 | 0.00 | 78 | 1008.1 |
| 20260905063038 | 16 | 290 | 12.9 | 27.4 | 0.00 | 1.40 | 0.00 | 79 | 1008.0 |
| 20260905061540 | 16 | 289 | 11.3 | 25.7 | 0.00 | 1.40 | 0.00 | 82 | 1007.8 |
| 20260905060047 | 16 | 340 | 12.9 | 29.0 | 0.00 | 1.40 | 0.00 | 79 | 1007.9 |
| 20260905054538 | 16 | 263 | 11.3 | 20.9 | 0.00 | 1.40 | 0.00 | 82 | 1007.7 |
| 20260905053033 | 16 | 266 | 8.0 | 22.5 | 0.00 | 1.40 | 0.00 | 82 | 1007.7 |
| 20260905051549 | 16 | 262 | 9.7 | 25.7 | 0.00 | 1.40 | 0.00 | 81 | 1007.7 |
| 20260905050032 | 16 | 266 | 9.7 | 33.8 | 0.00 | 1.40 | 0.00 | 83 | 1007.4 |
| 20260905044542 | 16 | 245 | 9.7 | 20.9 | 0.00 | 1.40 | 0.00 | 82 | 1007.3 |
| 20260905043038 | 15 | 312 | 6.4 | 24.1 | 0.00 | 1.40 | 0.00 | 82 | 1007.4 |
| 20260905041535 | 16 | 288 | 9.7 | 24.1 | 0.00 | 1.40 | 0.00 | 82 | 1007.3 |
| 20260905040047 | 16 | 283 | 9.7 | 22.5 | 0.00 | 1.40 | 0.00 | 83 | 1007.2 |
| 20260905034539 | 15 | 270 | 8.0 | 20.9 | 0.00 | 1.45 | 0.00 | 84 | 1007.1 |
| 20260905033034 | 15 | 265 | 9.7 | 22.5 | 0.00 | 1.45 | 0.00 | 83 | 1007.1 |
| 20260905031541 | 15 | 265 | 8.0 | 20.9 | 0.00 | 1.45 | 0.00 | 83 | 1006.9 |
| 20260905030035 | 15 | 335 | 9.7 | 25.7 | 0.00 | 1.45 | 0.00 | 81 | 1006.9 |
| 20260905024536 | 16 | 230 | 11.3 | 24.1 | 0.00 | 1.50 | 0.00 | 81 | 1006.8 |
| 20260905023035 | 15 | 304 | 11.3 | 24.1 | 0.00 | 1.50 | 0.00 | 81 | 1006.8 |
| 20260905021543 | 16 | 288 | 9.7 | 27.4 | 0.00 | 1.50 | 0.00 | 82 | 1006.7 |
| 20260905020042 | 15 | 279 | 11.3 | 25.7 | 0.00 | 1.50 | 0.00 | 81 | 1006.7 |
| 20260905014537 | 16 | 274 | 11.3 | 24.1 | 0.00 | 1.50 | 0.00 | 81 | 1006.4 |
| 20260905013035 | 16 | 286 | 11.3 | 20.9 | 0.00 | 1.50 | 0.00 | 82 | 1006.3 |
| 20260905011550 | 15 | 236 | 11.3 | 25.7 | 0.00 | 1.50 | 0.00 | 82 | 1006.4 |
| 20260905010042 | 16 | 271 | 11.3 | 30.6 | 0.00 | 1.50 | 0.00 | 82 | 1006.3 |
| 20260905004537 | 15 | 253 | 12.9 | 25.7 | 0.00 | 1.50 | 0.00 | 81 | 1006.4 |
| 20260905003044 | 15 | 287 | 12.9 | 25.7 | 0.00 | 1.50 | 0.00 | 81 | 1006.4 |
| 20260905001535 | 15 | 251 | 11.3 | 24.1 | 0.00 | 1.50 | 0.00 | 83 | 1006.4 |
| 20260905000038 | 15 | 309 | 14.5 | 24.1 | 0.00 | 1.50 | 0.00 | 82 | 1006.2 |
| 20260904234535 | 16 | 320 | 9.7 | 27.4 | 0.00 | 1.50 | 0.00 | 82 | 1006.2 |
| 20260904233049 | 15 | 297 | 12.9 | 29.0 | 0.00 | 1.50 | 0.00 | 82 | 1006.0 |
| 20260904231535 | 15 | 263 | 9.7 | 25.7 | 0.00 | 1.50 | 0.00 | 82 | 1006.0 |
| 20260904230041 | 15 | 278 | 9.7 | 24.1 | 0.00 | 1.50 | 0.00 | 83 | 1005.8 |
| 20260904224536 | 15 | 309 | 12.9 | 27.4 | 0.00 | 1.50 | 0.00 | 82 | 1005.7 |
| 20260904223037 | 15 | 328 | 14.5 | 30.6 | 0.00 | 1.50 | 0.00 | 83 | 1005.6 |